sat.trackr.live / text

‹ back to catalog

STARLINK-33745

NORAD 63714 · 2025-087T

PAYLOAD ACTIVE UNKNOWN

§ Identity

Operator
Country
US
Launch date
2025-04-28
Launch site
AFWTR
Launch vehicle
Mass (kg)
RCS (m²)

Purposes: comms

External: N2YO · Heavens-Above · Gunter

§ Orbital elements

Epoch: 2026-09-20T14:58:33.949056Z

Period
93.85 min
Inclination
53.1612°
Eccentricity
0.0001184
Mean motion
15.34396439 rev/d
Perigee alt
461.9 km
Apogee alt
463.5 km
Semi-major
6,840.9 km
B*
7.2477e-4
RAAN
32.7809°
Arg perigee
82.0654°
Mean anomaly
278.0483°
Rev number
7,906

§ Raw data

STARLINK-337451 63714U 25087T   26263.62400404  .00024188  00000+0  72477-3 0  99942 63714  53.1612  32.7809 0001184  82.0654 278.0483 15.34396439 79060

JSON: /api/v1/satellites/63714 · /tle

For live sub-satellite position, see the globe view (requires WebGL).

§ Visibility from observer

Set your observer location to see the next 7 days of passes ≥ 10°. The values pass through the URL so the page stays shareable.

No JS? Fill the form by hand. The geolocation button needs JavaScript.